Location: Karl?k Tepe
(36.8167°N, 30.1000°E)
Time: 20:06:05
(UTC+00:00)

Daily predictions for brighter satellites

Satellite Brightness Start Highest point End
(mag) Time Altitude Azimuth Time Altitude Azimuth Time Altitude Azimuth
Cosmos 2100 Rocket 4.4 16:34:05 10° SSW 16:40:26 73° W 16:46:49 10° N
ADEOS 4.2 16:35:54 10° SE 16:40:37 36° ENE 16:45:22 10° N
Cosmos 841 Rocket 3.6 16:36:13 10° S 16:41:17 56° ESE 16:46:21 10° NNE
Cosmos 2292 Rocket 3.8 16:38:45 10° NNE 16:42:17 32° ENE 16:45:13 10° SE
Cosmos 990 Rocket 4.1 16:37:11 10° NNW 16:42:25 88° WSW 16:47:35 10° SSE
Cosmos 1726 3.2 16:41:27 10° SE 16:43:09 15° E 16:44:51 10° NE
Kosmos-1783 4.2 16:43:10 10° S 16:46:23 25° SE 16:48:34 10° ENE
Cosmos 1844 3.6 16:44:36 10° NNW 16:50:11 78° ENE 16:55:44 10° SSE
Aureole 1 Rocket 2.9 16:48:07 10° N 16:52:11 49° ENE 16:55:28 10° SE
Tsikada Rocket 4.3 16:48:44 10° N 16:54:44 45° E 17:00:44 10° SSE
Cosmos 2016 Rocket 4.0 16:49:42 10° S 16:55:47 85° E 17:01:55 10° N
Cosmos 1743 3.2 16:52:39 10° SSE 16:55:53 32° E 16:59:06 10° NNE
OAO 2 Rocket 3.3 16:51:18 10° W 16:56:11 72° S 17:00:44 12° E
CZ-4B R/B 4.4 16:52:06 10° ESE 16:56:22 24° ENE 17:00:36 10° NNE
NOSS 3-1 (A) 4.4 16:52:15 10° NW 17:00:05 80° WSW 17:09:19 10° SSE
Cosmos 1674 4.4 17:00:13 10° NE 17:01:35 12° ENE 17:01:56 12° E
CZ-4B R/B 3.6 16:59:32 10° SE 17:02:46 29° ENE 17:06:08 10° N
Iridium 4 Rocket 3.7 17:00:53 10° NNE 17:04:39 32° E 17:08:22 10° SSE
Helios 1B rocket 3.6 17:01:12 10° S 17:04:53 43° W 17:08:36 10° NNW
Resurs 1-3 3.5 17:00:38 10° SSE 17:04:54 65° ENE 17:09:12 10° N
SPOT 1/Viking Rocket 3.6 16:59:57 10° SSE 17:05:02 59° ENE 17:10:07 10° N
ATLAS CENTAUR R/B 3.2 17:06:44 10° NNW 17:12:04 64° NE 17:19:19 14° SE
Cosmos 2360 Rocket 3.6 17:07:40 10° SW 17:12:58 41° WNW 17:18:18 10° N
USA 215 4.1 17:08:25 10° ENE 17:13:40 25° ESE 17:18:52 10° S
ARGOS Delta rocket 4.2 17:09:38 10° SSE 17:14:41 49° ENE 17:19:31 10° N
Okean O Rocket 3.1 17:17:08 17° E 17:18:20 19° ENE 17:21:26 10° NNE
Cosmos 1898 Rocket 3.5 17:13:23 10° NNW 17:18:42 85° ENE 17:23:57 10° SSE
Cosmos 2237 Rocket 3.7 17:23:14 16° E 17:23:14 16° E 17:25:13 10° ENE
Cosmos 2322 Rocket 4.4 17:17:08 10° WSW 17:21:58 28° WNW 17:26:50 10° N
USA 306 2.1 17:19:34 10° SSW 17:22:22 55° SE 17:24:56 15° NE
Resurs 01 Rocket 2.2 17:19:32 16° SE 17:22:34 38° ENE 17:26:40 10° N
ACS3 Solar Sail 2.9 17:19:51 17° ESE 17:23:13 27° ENE 17:28:25 10° NNE
Cosmos 1151 Rocket 2.9 17:19:32 10° N 17:23:48 84° E 17:28:01 10° S
Cosmos 1340 2.5 17:21:04 10° SSW 17:24:18 69° W 17:27:34 10° N
Meteor PRIRODA 3.4 17:22:46 10° S 17:26:04 79° WSW 17:29:23 10° NNW
USA 186 2.3 17:25:33 29° ESE 17:26:32 37° ENE 17:29:33 10° N
Cosmos 1814 Rocket 4.2 17:22:26 10° S 17:27:29 46° ESE 17:32:31 10° NNE
OAO 3 Copernicus 4.5 17:23:36 10° W 17:28:34 61° S 17:31:26 25° ESE
Cosmos 2333 Rocket 4.1 17:24:34 10° WSW 17:29:42 33° WNW 17:34:52 10° N
Cosmos 2219 Rocket 3.0 17:28:18 10° SW 17:33:50 54° WNW 17:39:24 10° NNE
ATLAS 3B R/B 3.2 17:26:08 10° NW 17:33:59 73° WSW 17:41:30 10° SSE
Okean-O 4.4 17:34:45 16° ENE 17:34:45 16° ENE 17:37:08 10° NNE
Helios 1A 3.9 17:32:11 10° N 17:36:06 49° WNW 17:40:00 10° SSW
Cosmos 44 Rocket 4.0 17:33:12 10° NNW 17:37:33 35° NE 17:38:58 29° E
CSL-04 Rocket 3.9 17:35:13 21° SE 17:38:36 49° ENE 17:43:44 10° N
BlueWalker 3 4.3 17:38:42 10° N 17:40:03 12° NNE 17:41:17 10° NE
USA 229 DEB 4.0 17:35:28 10° NNW 17:43:06 70° NE 17:48:31 23° SE
USA 229 4.0 17:35:38 10° NNW 17:43:16 70° NE 17:48:36 24° SE
CZ-4B R/B 4.3 17:41:49 10° S 17:46:22 47° W 17:50:56 10° NNW
Timation 2 Rocket 4.1 17:43:22 10° NNW 17:49:44 80° WSW 17:55:13 16° SSE
Cosmos 1980 4.2 17:45:01 10° SSE 17:50:03 34° ESE 17:55:07 10° NE
SJ-6B 4.2 17:48:15 10° SSW 17:51:37 34° W 17:54:58 10° NNW
Cosmos 1766 Rocket 3.5 17:47:33 10° S 17:51:53 87° W 17:56:15 10° N
Cosmos 2322 4.0 17:48:46 10° SSW 17:54:23 69° WNW 18:00:02 10° NNE
Cosmos 1842 4.0 17:51:04 10° N 17:53:34 33° NE 17:53:34 33° NE
GEOS 3 Rocket 4.2 17:55:00 18° SSE 17:58:43 53° WSW 18:03:49 10° NW
Cosmos 1891 Rocket 4.3 17:55:09 10° S 18:01:10 84° E 18:07:18 10° N
Cosmos 1066 Rocket 4.3 17:57:02 10° N 18:02:55 84° W 18:07:17 19° S
Meteor 2-10 4.4 18:03:22 44° ESE 18:04:00 46° E 18:09:21 10° NNE
CZ-4 R/B 2.9 18:06:31 12° SSW 18:09:35 32° W 18:13:01 10° NNW
Cosmos 1400 Rocket 3.0 18:06:55 10° NNW 18:10:43 63° W 18:11:19 53° SW
COSMOS 2428 3.2 18:07:48 10° SW 18:13:24 59° WNW 18:19:04 10° NNE
CSL-04 Debris 4.3 18:10:19 25° S 18:13:34 74° WSW 18:19:03 10° NNW
Cosmos 1707 4.0 18:12:44 10° N 18:14:39 29° N 18:14:39 29° N
Cosmos 1536 3.9 18:20:01 34° N 18:20:01 34° N 18:22:15 10° N
Nadezhda 4 Rocket 4.1 18:14:26 10° N 18:20:33 53° E 18:21:01 52° E
Cosmos 1464 Rocket 3.9 18:18:42 18° S 18:23:33 86° E 18:29:55 10° N
Lacrosse 4 Rocket 1.6 18:20:40 10° NNW 18:24:34 71° NNW 18:24:34 71° NNW
Cosmos 1943 Rocket 3.4 18:21:09 10° N 18:24:57 26° NE 18:24:57 26° NE
USA 59 Rocket 1.0 18:22:12 10° NNW 18:25:31 41° NNE 18:25:31 41° NNE
Meteor 1-11 Rocket 3.6 18:27:19 67° SE 18:27:54 74° E 18:33:30 10° NNE
Terra 3.6 18:30:29 19° NNE 18:30:29 19° NNE 18:32:16 10° NNE
Cosmos 1356 Rocket 4.2 18:25:04 10° N 18:28:04 46° N 18:28:04 46° N
CZ-4B R/B 4.2 18:33:16 21° SSW 18:36:38 42° W 18:41:47 10° NNW
Meteor 2-9 Rocket 4.4 18:38:56 55° NNE 18:38:56 55° NNE 18:43:07 10° NNE
ERS-1 Rocket 4.2 18:39:40 30° NNE 18:39:40 30° NNE 18:42:35 10° N
OAO 2 Rocket 4.3 18:35:55 10° W 18:39:33 38° SW 18:39:33 38° SW
Cosmos 2278 Rocket 2.5 18:36:18 10° NNW 18:41:07 53° NNE 18:41:07 53° NNE
Cosmos 2034 Rocket 3.8 18:41:53 77° SE 18:42:18 82° E 18:48:31 10° N
SPOT 5 3.5 18:45:11 49° N 18:45:11 49° N 18:48:33 10° N
Okean O Rocket 3.0 18:54:28 35° W 18:54:28 35° W 18:58:21 10° NNW
USA 215 3.3 18:50:27 10° NE 18:57:00 77° NW 19:03:30 10° SW
Resurs 01 Rocket 4.2 18:57:01 13° SW 18:59:05 17° W 19:01:57 10° NW
Aureole 3 Rocket 4.3 19:01:29 48° SSW 19:03:55 78° W 19:10:06 10° N
Cosmos 2237 Rocket 2.7 19:04:46 54° W 19:05:09 56° WNW 19:10:41 10° NNE
ACS3 Solar Sail 2.7 19:05:10 37° SW 19:06:56 46° W 19:13:04 10° NNW
USA 267 4.3 19:29:00 34° NNE 19:29:00 34° NNE 19:34:20 10° NNW
Cosmos 1943 Rocket 4.4 20:04:34 10° NW 20:06:28 20° NW 20:06:28 20° NW
USA 281 4.4 23:47:53 37° NNE 23:47:53 37° NNE 23:52:13 10° N
